Wind_Speed
52 50 49 48 49 50 50 50 51 55 58 60 60 60 61 62 64 64 67 70 74 77 80 79 77 77 78 82 84 84 80 76 70 63 56 57 63 65
54 53 52 51 53 54 54 55 56 56 58 65 68 67 68 67 68 69 73 77 81 85 87 86 87 86 87 91 89 81 76 75 72 65 63 66 69 69
57 56 54 55 57 57 59 61 62 62 61 66 67 69 69 68 69 70 73 74 82 87 86 89 90 89 89 87 78 69 62 58 59 65 67 75 72 66
59 58 58 58 60 61 62 64 68 68 67 68 72 72 72 71 71 73 73 79 83 84 86 88 93 86 74 69 61 55 50 49 55 62 68 75 72 69
62 60 60 61 64 64 67 70 73 72 72 72 74 75 74 76 75 72 78 81 81 83 86 89 82 69 61 54 49 46 41 45 50 58 69 77 72 73
61 62 64 65 65 68 71 73 74 76 76 76 76 75 78 78 73 76 80 78 78 82 83 74 67 53 49 41 38 37 40 46 50 58 70 84 77 78
65 66 68 68 69 71 72 75 76 77 78 78 78 76 78 78 76 81 75 75 80 76 64 60 51 38 35 29 29 36 42 46 52 64 84 82 82 79
67 71 70 69 69 74 76 77 77 78 78 79 75 74 77 75 80 76 74 75 65 64 46 45 32 27 23 24 33 41 43 47 53 75 86 84 84 77
73 72 69 68 73 77 77 78 76 78 78 73 72 73 73 78 75 73 75 66 53 47 36 30 21 18 21 28 34 41 49 56 72 80 85 88 83 75
74 72 69 71 76 77 77 74 73 76 75 71 69 68 71 70 67 68 65 55 43 33 24 18 19 24 28 31 36 47 55 66 83 86 87 84 78 71
75 70 73 73 75 73 73 69 72 73 69 67 65 64 67 62 61 59 52 38 30 24 16 15 24 31 40 46 48 52 62 80 86 89 85 79 73 65
71 74 73 74 71 69 65 66 70 66 65 63 59 62 60 55 56 47 35 27 21 9 12 22 34 44 52 57 59 66 80 87 89 85 81 76 69 62
72 69 68 68 63 62 61 63 63 62 59 56 56 61 54 50 45 32 22 13 5 8 24 34 46 62 70 73 76 84 88 90 87 83 79 73 65 60
60 61 61 60 58 57 57 57 58 56 53 50 54 53 48 39 29 21 11 4 12 30 34 52 65 72 75 77 82 85 88 86 82 75 68 63 57 51
56 57 55 53 55 54 53 54 55 50 46 48 51 43 36 29 18 10 1 9 25 39 51 62 68 71 72 76 80 81 83 81 76 69 64 59 55 52
52 50 48 49 52 52 50 52 49 44 40 44 44 31 24 19 10 3 8 15 36 47 55 65 68 69 72 78 79 74 73 69 71 67 61 53 48 47
48 47 46 48 50 48 49 48 44 38 36 39 35 19 13 6 6 12 17 39 42 47 58 62 66 71 79 82 79 78 76 73 64 57 53 51 46 46
45 44 46 47 47 47 47 44 39 32 32 33 25 11 7 8 21 32 30 46 55 56 65 63 61 76 83 85 86 80 74 69 64 56 51 49 47 46
44 44 46 46 45 45 44 40 36 29 26 25 17 8 11 24 41 55 55 50 62 64 66 65 60 74 82 83 84 84 78 70 66 60 56 50 44 41
44 46 45 44 43 43 41 37 35 26 21 17 12 16 23 41 59 58 64 60 64 67 69 71 69 75 82 83 79 78 78 78 71 64 60 55 51 44
45 44 43 41 41 41 39 36 33 23 17 14 15 24 37 55 67 66 72 70 70 68 67 71 74 75 83 85 85 82 78 75 73 68 62 56 48 40
42 40 41 40 40 42 38 34 29 17 14 16 20 29 52 65 72 74 74 73 74 74 73 71 76 80 80 84 83 81 76 70 65 60 56 49 44 39
38 38 40 40 41 41 36 32 23 14 14 20 25 35 63 73 78 78 78 73 75 78 75 76 78 80 79 80 81 80 73 72 71 64 57 52 48 46
Wind_Direction
281 282 286 288 291 293 294 297 298 299 300 298 299 299 298 298 296 294 290 292 293 293 290 287 285 280 277 278 276 272 268 260 252 243 231 221 215 214
279 281 284 288 290 291 294 297 297 298 300 300 301 302 303 302 301 300 299 299 298 296 292 290 288 287 284 280 276 272 262 254 247 237 226 215 205 204
278 280 283 287 289 290 294 296 298 298 298 300 299 298 301 301 299 299 298 297 294 290 290 288 288 285 283 281 277 269 261 248 236 228 219 211 204 200
274 278 282 285 288 290 292 296 298 299 299 299 299 298 299 301 298 300 300 296 291 291 291 291 288 289 285 278 271 263 253 239 227 217 212 203 189 194
271 275 279 282 287 290 291 294 297 299 300 299 298 299 300 301 302 302 301 295 294 294 292 292 293 289 281 273 261 251 243 226 216 207 199 188 185 186
269 274 278 282 285 288 291 293 296 299 300 299 299 300 301 303 304 303 299 297 296 293 295 294 291 286 275 265 249 237 224 211 201 193 185 175 179 179
269 273 275 280 284 287 289 292 295 298 299 298 299 302 302 304 305 300 300 300 298 299 297 291 285 279 267 249 227 212 208 199 187 182 177 172 175 173
266 270 275 280 283 285 287 290 294 296 297 296 301 301 304 308 303 304 303 301 304 299 294 282 281 264 246 223 205 200 194 181 178 174 169 170 169 169
265 268 273 277 282 283 286 289 293 294 294 300 300 304 309 306 306 307 306 309 303 294 290 278 253 226 204 195 193 189 176 170 169 168 168 167 165 167
263 267 272 275 278 282 285 289 290 292 296 298 302 307 307 304 309 309 310 307 302 294 281 245 201 185 173 168 169 175 170 165 164 163 166 163 163 165
260 264 269 273 276 280 283 287 288 291 295 298 304 311 306 310 313 312 309 303 295 285 252 203 174 159 149 150 158 163 155 158 160 161 161 161 161 163
258 263 267 271 275 278 281 283 287 290 294 302 313 309 311 317 317 312 309 303 291 255 170 162 155 149 145 142 146 148 150 155 158 158 160 158 159 165
257 262 265 267 271 273 277 282 286 290 297 306 315 311 319 323 313 317 313 312 321 139 146 147 145 139 135 139 143 152 154 156 156 159 158 158 160 167
254 257 260 265 267 271 275 280 283 289 299 314 313 315 324 317 320 323 343 1 130 124 139 137 131 132 134 142 151 155 155 154 156 157 154 156 161 166
250 254 257 260 265 270 274 278 283 293 306 314 312 323 321 316 342 334 7 153 133 124 127 130 131 137 141 146 152 153 153 154 155 155 159 162 166 169
247 248 252 258 264 268 273 276 284 295 311 314 312 327 318 323 338 329 172 156 137 133 135 138 140 146 148 148 153 152 153 160 159 160 162 166 169 171
240 245 250 256 261 266 271 277 285 299 314 312 312 324 304 302 238 185 182 153 149 146 145 148 150 152 152 152 155 160 164 162 163 165 168 171 173 174
239 244 251 255 259 264 271 278 286 302 316 307 310 304 260 212 187 179 188 163 159 159 154 153 155 157 156 158 161 163 165 166 166 170 174 176 177 177
239 245 249 253 259 264 270 278 287 304 310 297 301 258 189 187 180 173 176 175 169 166 165 164 169 167 165 165 165 165 168 171 173 173 177 180 183 181
240 244 247 252 258 265 271 279 287 305 301 278 270 205 192 184 180 181 178 183 178 175 171 166 169 173 171 171 170 169 172 174 177 177 178 182 184 186
239 243 246 252 259 265 269 277 286 304 277 250 243 199 194 186 186 187 184 184 184 180 178 176 176 177 176 175 174 175 178 179 178 178 179 182 186 185
238 242 247 254 260 263 268 274 283 284 252 235 224 199 197 187 188 186 187 190 189 188 187 185 184 184 183 181 180 180 180 181 183 184 183 186 187 188
239 244 249 254 259 264 269 273 275 254 234 223 214 200 191 187 191 191 195 194 194 193 191 191 192 190 188 187 184 184 184 183 183 186 187 189 191 193
Height
10704 10704 10701 10700 10697 10695 10693 10690 10688 10682 10675 10669 10669 10665 10661 10657 10652 10646 10639 10632 10622 10614 10608 10603 10602 10604 10603 10597 10591 10592 10598 10606 10615 10628 10643 10654 10667 10683
10689 10689 10688 10686 10683 10680 10678 10676 10675 10673 10668 10655 10647 10642 10637 10632 10626 10619 10610 10602 10591 10582 10575 10570 10564 10562 10562 10556 10552 10556 10560 10569 10585 10604 10621 10632 10647 10668
10675 10673 10673 10671 10668 10666 10663 10660 10657 10656 10654 10645 10638 10629 10622 10618 10611 10604 10596 10586 10572 10559 10553 10545 10537 10535 10528 10519 10516 10518 10528 10540 10555 10572 10597 10610 10632 10655
10659 10658 10657 10656 10653 10651 10649 10646 10641 10638 10637 10631 10619 10612 10606 10601 10594 10586 10575 10562 10549 10536 10525 10515 10504 10501 10495 10490 10491 10496 10506 10517 10530 10549 10573 10592 10620 10645
10641 10642 10641 10641 10638 10636 10633 10630 10627 10623 10618 10614 10604 10594 10587 10579 10573 10562 10549 10536 10524 10511 10497 10486 10477 10474 10468 10468 10472 10480 10492 10500 10512 10533 10556 10586 10611 10635
10626 10624 10624 10624 10623 10621 10617 10614 10611 10606 10600 10594 10585 10578 10566 10558 10551 10541 10524 10512 10501 10486 10475 10463 10453 10454 10449 10453 10457 10468 10478 10489 10504 10526 10551 10580 10605 10630
10609 10607 10608 10608 10608 10605 10602 10597 10595 10590 10584 10577 10568 10560 10548 10539 10528 10511 10503 10492 10473 10459 10454 10440 10437 10437 10437 10441 10448 10459 10469 10483 10502 10524 10549 10577 10602 10629
10592 10591 10592 10594 10594 10590 10585 10582 10580 10575 10568 10561 10554 10544 10532 10521 10504 10490 10480 10469 10457 10430 10436 10424 10425 10424 10427 10432 10440 10451 10466 10485 10502 10526 10555 10577 10604 10629
10573 10576 10579 10581 10578 10573 10569 10567 10565 10559 10552 10548 10539 10528 10518 10499 10487 10473 10455 10445 10435 10424 10420 10415 10415 10416 10418 10426 10438 10451 10468 10485 10509 10536 10558 10580 10603 10629
10557 10560 10565 10567 10564 10558 10554 10553 10549 10544 10539 10533 10526 10519 10503 10485 10474 10457 10441 10429 10421 10413 10409 10409 10408 10410 10415 10426 10440 10454 10468 10490 10516 10541 10563 10587 10608 10631
10542 10546 10549 10550 10548 10544 10541 10540 10535 10531 10527 10520 10514 10504 10485 10474 10461 10445 10430 10421 10412 10408 10408 10407 10407 10410 10418 10430 10443 10461 10478 10502 10528 10549 10573 10592 10615 10635
10527 10529 10532 10532 10533 10531 10530 10527 10523 10520 10516 10508 10502 10486 10473 10462 10446 10434 10425 10416 10410 10411 10409 10408 10411 10416 10425 10438 10453 10476 10498 10519 10536 10559 10580 10601 10619 10638
10510 10514 10514 10515 10520 10516 10518 10517 10513 10510 10506 10500 10491 10474 10464 10454 10438 10432 10423 10416 10417 10417 10412 10415 10420 10426 10433 10450 10470 10492 10512 10532 10550 10567 10585 10604 10621 10640
10494 10496 10499 10502 10503 10506 10508 10506 10503 10502 10498 10492 10482 10468 10457 10447 10441 10431 10427 10422 10423 10425 10425 10431 10436 10444 10456 10472 10495 10508 10527 10547 10565 10585 10600 10617 10632 10649
10477 10483 10488 10490 10490 10494 10496 10494 10493 10493 10490 10484 10474 10465 10454 10444 10445 10435 10434 10430 10433 10438 10442 10447 10456 10473 10484 10500 10521 10536 10552 10558 10577 10595 10609 10621 10634 10648
10464 10471 10476 10479 10479 10483 10485 10484 10484 10484 10484 10477 10467 10463 10453 10446 10445 10443 10442 10442 10446 10455 10461 10467 10475 10490 10505 10518 10538 10557 10567 10585 10586 10598 10612 10627 10641 10654
10452 10458 10465 10468 10469 10473 10474 10475 10475 10477 10478 10470 10462 10461 10456 10454 10451 10452 10450 10453 10460 10467 10481 10488 10492 10503 10511 10527 10545 10560 10572 10582 10599 10611 10620 10631 10643 10656
10441 10448 10454 10457 10460 10462 10465 10467 10467 10471 10471 10463 10458 10457 10457 10456 10456 10460 10459 10462 10466 10475 10488 10500 10511 10515 10521 10531 10543 10562 10575 10586 10596 10611 10625 10635 10644 10656
10431 10438 10443 10447 10450 10452 10455 10458 10459 10464 10463 10457 10453 10454 10457 10459 10459 10464 10470 10469 10474 10480 10492 10505 10514 10525 10530 10539 10548 10555 10572 10588 10598 10611 10624 10637 10648 10657
10422 10428 10434 10438 10441 10442 10446 10449 10451 10457 10455 10451 10449 10451 10454 10462 10465 10468 10474 10475 10477 10484 10491 10505 10514 10523 10531 10545 10559 10570 10578 10582 10598 10612 10622 10635 10645 10656
10412 10419 10424 10429 10432 10433 10436 10441 10443 10448 10447 10444 10443 10447 10451 10460 10464 10469 10475 10481 10485 10491 10498 10506 10515 10522 10531 10540 10552 10565 10578 10591 10600 10611 10624 10635 10647 10657
10404 10409 10414 10419 10422 10423 10427 10431 10436 10439 10439 10438 10438 10444 10447 10459 10463 10469 10475 10483 10488 10494 10499 10508 10515 10521 10533 10546 10558 10568 10579 10594 10610 10621 10630 10640 10648 10657
10395 10400 10405 10408 10411 10414 10417 10422 10428 10430 10431 10431 10431 10436 10444 10453 10459 10466 10473 10480 10487 10493 10502 10508 10513 10521 10534 10545 10557 10571 10584 10592 10601 10613 10626 10637 10646 10653